This demonstration page uses our WeatherBlox Daily Observations layout. Learn more.

Left ArrowRight Arrow

44.8408, -93.29828

Hourly Observations for May 19, 2016

Temp ( °F °C ) Dew Point ( °F °C ) Humidity (%) Winds ( mph kmh ) Pressure ( in mb ) Visibility ( mi km ) Precip ( " mm )
12:53 am 00:53 Clear 54 12.2 32 0 43 43 ESE 3 6 30.15 1021 10 16 0.00 0.00
1:53 am 01:53 Clear 55 12.8 31 -0.6 40 40 ESE 5 7 30.14 1021 10 16 0.00 0.00
2:53 am 02:53 Clear 53 11.7 29 -1.7 40 40 SSE 6 9 30.14 1021 10 16 0.00 0.00
3:53 am 03:53 Clear 51 10.6 30 -1.1 44 44 SE 3 6 30.14 1021 10 16 0.00 0.00
4:53 am 04:53 Partly Cloudy 50 10 32 0 50 50 ESE 6 9 30.12 1020 10 16 0.00 0.00
5:53 am 05:53 Partly Cloudy 51 10.6 34 1.1 52 52 ESE 6 9 30.12 1020 10 16 0.00 0.00
6:53 am 06:53 Mostly Sunny 50 10 37 2.8 61 61 ESE 7 11 30.13 1020 10 16 0.00 0.00
7:53 am 07:53 Mostly Sunny 54 12.2 39 3.9 57 57 SE 6 9 30.13 1020 10 16 0.00 0.00
8:53 am 08:53 Mostly Sunny 58 14.4 41 5 53 53 SSE 8 13 30.13 1020 10 16 0.00 0.00
9:53 am 09:53 Mostly Sunny 62 16.7 44 6.7 52 52 SE 5 7 30.12 1020 10 16 0.00 0.00
10:53 am 10:53 Partly Cloudy 66 18.9 44 6.7 45 45 S 9 15 30.11 1020 10 16 0.00 0.00
11:53 am 11:53 Partly Cloudy 69 20.6 45 7.2 42 42 SSE 8 13 30.10 1019 10 16 0.00 0.00
12:53 pm 12:53 Partly Cloudy 70 21.1 43 6.1 38 38 SSW 10 17 30.08 1019 10 16 0.00 0.00
1:53 pm 13:53 Mostly Cloudy 72 22.2 41 5 33 33 S 14 22 30.06 1018 10 16 0.00 0.00
2:53 pm 14:53 Cloudy 73 22.8 41 5 32 32 SSW 15 24 30.06 1018 10 16 0.00 0.00
3:53 pm 15:53 Mostly Cloudy 71 21.7 39 3.9 31 31 S 7 11 30.05 1018 10 16 0.00 0.00
4:53 pm 16:53 Mostly Cloudy 74 23.3 39 3.9 28 28 SW 12 19 30.04 1017 10 16 0.00 0.00
5:53 pm 17:53 Mostly Cloudy 73 22.8 39 3.9 29 29 S 14 22 30.04 1017 10 16 0.00 0.00
6:53 pm 18:53 Mostly Cloudy 72 22.2 38 3.3 29 29 S 13 20 30.03 1017 10 16 0.00 0.00
7:53 pm 19:53 Mostly Cloudy 72 22.2 38 3.3 29 29 S 7 11 30.03 1017 10 16 0.00 0.00
8:53 pm 20:53 Partly Cloudy 66 18.9 39 3.9 37 37 SSE 6 9 30.03 1017 10 16 0.00 0.00
9:53 pm 21:53 Partly Cloudy 63 17.2 38 3.3 40 40 SSE 6 9 30.05 1018 10 16 0.00 0.00
10:53 pm 22:53 Mostly Clear 62 16.7 37 2.8 40 40 SE 9 15 30.05 1018 10 16 0.00 0.00
11:53 pm 23:53 Partly Cloudy 63 17.2 36 2.2 37 37 SSE 10 17 30.05 1018 10 16 0.00 0.00

Powered by AerisWeather